Pocatello, ID

10:26 PM MDT on September 19, 2017 (GMT -0600)
Pocatello Regional

Weather History for KPIH - December, 2012

Change the Weather History Date:

Saturday, December 22, 2012

  Actual Average Record
Temperature  
Mean Temperature 27 °F 23 °F  
Max Temperature 42 °F 32 °F 58 °F (1964)
Min Temperature 12 °F 15 °F -25 °F (1983)
Degree Days  
Heating Degree Days 38 42  
Month to date heating degree days 706 883  
Since 1 July heating degree days 2157 2611  
Cooling Degree Days 0 0  
Month to date cooling degree days 0 0  
Year to date cooling degree days 560 392  
Moisture  
Dew Point 16 °F    
Average Humidity 60    
Maximum Humidity 92    
Minimum Humidity 28    
Precipitation  
Precipitation T in 0.04 in 0.59 in (1944)
Month to date precipitation 0.89 0.90  
Year to date precipitation 10.18 11.79  
Snow  
Snow T in - - ()
Month to date snowfall 1.5  
Since 1 July snowfall 8.6  
Snow Depth 0.00 in    
Sea Level Pressure  
Sea Level Pressure 30.02 in    
Wind  
Wind Speed 5 mph (NW)    
Max Wind Speed 20 mph    
Max Gust Speed 26 mph    
Visibility 10 miles    
Events      
T = Trace of Precipitation, MM = Missing Value Source: NWS Daily Summary

Daily Weather History Graph

Daily Weather History Graph

Search for Another Location

Airport or City:

Trip Planner

Search our weather history database for the weather conditions in past years. The results will help you decide how hot, cold, wet, or windy it might be!

Date:

Astronomy

Dec. 22, 2012 Rise Set
Actual Time 7:58 AM MST 4:59 PM MST
Civil Twilight 7:26 AM MST 5:32 PM MST
Nautical Twilight 6:50 AM MST 6:08 PM MST
Astronomical Twilight 6:16 AM MST 6:42 PM MST
Moon 1:23 PM MST (12/22) 2:43 AM MST (12/22)
Length of Visible Light 10h 05m
Length of Day
9h 00m
Waxing Gibbous, 74% of the Moon is Illuminated
Dec 22
Waxing Gibbous
Dec 28
Full
Jan 4
Last Quarter
Jan 11
New
Jan 18
First Quarter

Hourly Weather History & Observations

Time (MST) Temp. Windchill Dew Point Humidity Pressure Visibility Wind Dir Wind Speed Gust Speed Precip Events Conditions
12:53 AM 18.0 °F - 15.1 °F 88% 30.11 in 10.0 mi Calm Calm - N/A   Partly Cloudy
1:53 AM 18.0 °F 11.1 °F 14.0 °F 84% 30.08 in 10.0 mi North 4.6 mph - N/A   Clear
2:53 AM 17.1 °F - 12.0 °F 81% 30.10 in 10.0 mi Calm Calm - N/A   Clear
3:53 AM 15.1 °F 3.3 °F 12.0 °F 88% 30.10 in 10.0 mi NNW 9.2 mph - N/A   Clear
4:53 AM 15.8 °F 8.6 °F 10.4 °F 79% 30.00 in 10.0 mi NNW 4.6 mph - N/A   Clear
5:53 AM 12.9 °F - 10.0 °F 88% 30.12 in 10.0 mi Calm Calm - N/A   Clear
6:53 AM 12.9 °F - 10.0 °F 88% 30.11 in 10.0 mi Calm Calm - N/A   Clear
7:53 AM 12.9 °F - 10.0 °F 88% 30.10 in 10.0 mi Calm Calm - N/A   Partly Cloudy
8:53 AM 17.1 °F - 12.0 °F 81% 30.09 in 10.0 mi Calm Calm - N/A   Partly Cloudy
9:53 AM 21.0 °F - 16.0 °F 81% 30.07 in 10.0 mi Calm Calm - N/A   Clear
10:53 AM 26.1 °F 19.4 °F 19.0 °F 75% 30.01 in 10.0 mi Variable 5.8 mph - N/A   Clear
11:53 AM 30.9 °F 20.7 °F 21.0 °F 67% 29.97 in 10.0 mi NNW 13.8 mph - N/A   Clear
12:53 PM 33.1 °F 26.9 °F 19.0 °F 56% 29.95 in 10.0 mi North 6.9 mph - N/A   Clear
1:53 PM 36.0 °F 32.1 °F 18.0 °F 48% 29.94 in 10.0 mi NNE 4.6 mph - N/A   Mostly Cloudy
2:53 PM 35.1 °F 30.1 °F 18.0 °F 50% 29.92 in 10.0 mi ENE 5.8 mph - N/A   Mostly Cloudy
3:53 PM 41.0 °F - 10.0 °F 28% 29.91 in 10.0 mi Calm Calm - N/A   Overcast
4:53 PM 37.4 °F 32.8 °F 12.2 °F 36% 29.85 in 10.0 mi WSW 5.8 mph - N/A   Mostly Cloudy
5:53 PM 34.0 °F 31.0 °F 16.0 °F 48% 29.97 in 10.0 mi West 3.5 mph - N/A   Overcast
6:53 PM 32.0 °F 23.6 °F 21.9 °F 66% 30.01 in 10.0 mi NW 10.4 mph - N/A   Overcast
7:53 PM 32.0 °F 25.6 °F 24.1 °F 73% 30.02 in 10.0 mi SSE 6.9 mph - N/A   Overcast
8:53 PM 32.0 °F 26.4 °F 24.1 °F 73% 30.00 in 10.0 mi ESE 5.8 mph - N/A   Overcast
9:53 PM 34.0 °F 25.0 °F 21.0 °F 59% 29.99 in 10.0 mi SSW 12.7 mph - N/A   Overcast
10:53 PM 34.0 °F 24.6 °F 23.0 °F 64% 29.99 in 10.0 mi SSW 13.8 mph - N/A   Overcast
11:53 PM 32.0 °F 23.6 °F 28.9 °F 88% 29.99 in 10.0 mi South 10.4 mph - 0.00 in   Mostly Cloudy